Regional Weather Roundup
Issued by NWS

Home | Current Version | Previous Version | Graphics & Text | Print | Product List | Glossary On
Versions: 1 2 3 4 5 6 7 8 9 10 11 12 13 14 15 16 17 18 19 20 21 22 23 24 25 26 27 28 29 30 31 32 33 34 35 36 37 38 39 40 41 42 43 44 45 46 47 48 49 50
000
ASUS45 KBOU 011907
RWRCO

WEATHER ROUNDUP FOR COLORADO
NATIONAL WEATHER SERVICE DENVER/BOULDER CO
100 PM MDT WED APR 01 2015

NOTE: "FAIR" INDICATES FEW OR NO CLOUDS BELOW 12000 FEET WITH NO
SIGNIFICANT WEATHER AND/OR OBSTRUCTIONS TO VISIBILITY.

COZ001>005-013-030-031-012000-
...NORTHWEST COLORADO...

CITY           SKY/WX    TMP DP  RH WIND       PRES   REMARKS
CRAIG          CLOUDY    54  25  32 N10G17    29.93F
HAYDEN         PTSUNNY   52  21  30 NW21G29   29.92F
MEEKER         PTSUNNY   56  24  29 W14G26    29.93F
MOUNT WERNER   NOT AVBL
STEAMBOAT SPGS PTSUNNY   51  27  40 W14       29.91S
WALDEN         CLOUDY    43  21  42 N14G20    29.91S
$$

COZ006>008-011-012000-
...WEST CENTRAL VALLEYS...

CITY           SKY/WX    TMP DP  RH WIND       PRES   REMARKS
GRAND JUNCTION PTSUNNY   65  21  18 W14       29.85S
MONTROSE       MOSUNNY   69  18  14 SW17G26   29.87F
EAGLE          MOSUNNY   64  21  19 W20G25    29.85F
RIFLE          PTSUNNY   63  26  24 NW22G29   29.84F
DELTA          PTSUNNY   69  22  16 NW23G29   29.83F
NUCLA          MOSUNNY   63  21  20 SW10G16   29.92F
$$

COZ017>023-064>068-012000-
...SOUTHWEST COLORADO...

CITY           SKY/WX    TMP DP  RH WIND       PRES   REMARKS
DURANGO        MOSUNNY   63  21  20 W20G28    29.96F
CORTEZ         MOSUNNY   67  17  14 W20       29.94F
PAGOSA SPRINGS MOSUNNY   58  21  24 SW13G22   29.99F
TELLURIDE      PTSUNNY   52  16  24 W10G20    30.04F
WOLF CREEK PAS PTSUNNY   32  21  64 SW29G44   30.14F HAZE    WCI  18
$$

COZ009-010-012-014-032>034-037-058>063-012000-
...CENTRAL COLORADO...

CITY           SKY/WX    TMP DP  RH WIND       PRES   REMARKS
ASPEN          PTSUNNY   52  23  32 N16G33    29.90F
BUENA VISTA    MOSUNNY   56  18  23 SW14G21   29.92S
COPPER MTN     MIX PCPN  36  18  48 SW28G38   30.05F
BERTHOUD PASS  LGT SNOW  27  19  74 W15G39    30.07F WCI  15
COTTONWOOD PAS MOSUNNY   48  14  25 SW21G39   29.98F
GUNNISON       MOSUNNY   57  19  23 SW22G30   29.94F
KREMMLING      PTSUNNY   55  21  26 N12G17    29.87F
LEADVILLE        N/A     46  13  26 SW17G25   29.96
SALIDA         MOSUNNY   61  14  16 W29G37    29.98S
SUNLIGHT       MOSUNNY   43  23  45 CALM      30.04F
WILKERSON PASS PTSUNNY   45  12  26 SW9G23    30.05F
$$

COZ069>075-012000-
...SAN LUIS VALLEY/SANGRE DE CRISTO MOUNTAINS...

CITY           SKY/WX    TMP DP  RH WIND       PRES   REMARKS
ALAMOSA        SUNNY     63  16  16 W22G30    29.93F
LA VETA PASS   CLOUDY    48  19  32 SW6G23    30.02F
SAGUACHE       PTSUNNY   59  16  18 NW17G25   29.91F
$$

COZ035-036-038>040-012000-
...NORTHERN COLORADO FRONT RANGE...

CITY           SKY/WX    TMP DP  RH WIND       PRES   REMARKS
DENVER INTL AP PTSUNNY   68  20  16 CALM      29.74F
DMNS CITY PARK   N/A     69  19  15 SW12G20   29.73S
AURORA         PTSUNNY   71  22  16 VRB7      29.76F
FRONT RANGE AP PTSUNNY   72  21  15 SW5       29.76F
ERIE MUNI ARPT CLOUDY    68  18  14 S14G20    29.74S
BOULDER MUN AP PTSUNNY   66  27  22 W20G28    29.74S
CENTENNIAL     PTSUNNY   66  22  18 VRB6      29.75F
BROOMFIELD     PTSUNNY   66  23  19 W12G18    29.76F
FORT COLLINS   PTSUNNY   70  28  21 NW13G18   29.73F
LONGMONT       PTSUNNY   70  24  17 W13G20    29.75S
$$

COZ041-046-047-076>085-087-088-012000-
...PIKES PEAK/PALMER DIVIDE AND SOUTHERN FOOTHILLS...

CITY           SKY/WX    TMP DP  RH WIND       PRES   REMARKS
COLO. SPRINGS  PTSUNNY   67  17  14 NW8       29.79F
A. F. ACADEMY  MOSUNNY   68  14  12 W16G24    29.79F
ELLICOTT       NOT AVBL
FALCON         MOSUNNY   66  14  13 SW9G22    29.83F
FORT CARSON    MOSUNNY   71  19  13 SW21G26   29.74F
LIMON          MOSUNNY   73  20  13 VRB3      29.74F
MONUMENT HILL  PTSUNNY   61  18  18 W6        29.82F
TRINIDAD       MOSUNNY   74  18  12 SW23      29.80F
$$

COZ042>045-048>051-090-091-012000-
...NORTHEAST COLORADO...

CITY           SKY/WX    TMP DP  RH WIND       PRES   REMARKS
GREELEY ARPT   PTSUNNY   75  23  14 SW12G18   29.69F
AKRON          MOSUNNY   74  25  16 NW9       29.71F
BURLINGTON     CLOUDY    77  22  13 N15G24    29.69F
WRAY           PTSUNNY   80  24  12 N17G23    29.67F
STERLING       MOSUNNY   79  28  15 W18G24    29.67F
HOLYOKE        PTSUNNY   81  27  13 N17G25    29.67F
FORT MORGAN    MOSUNNY   75  22  13 NW9G16    29.71F
$$

COZ086-089-092>099-012000-
...SOUTHEAST COLORADO...

CITY           SKY/WX    TMP DP  RH WIND       PRES   REMARKS
PUEBLO         MOSUNNY   72  21  14 S3        29.73F
LA JUNTA       MOSUNNY   81  25  12 W14G21    29.71F
LAMAR          PTSUNNY   82  24  12 NW16G25   29.67F
SPRINGFIELD      N/A     79  24  13 NW12G22   29.73F
$$


USA.gov is the U.S. government's official web portal to all federal, state and local government web resources and services.